DW5264 Weather Reports


time (UTC)temp
C
wind
direction
speed
KPH
gust
KPH
rain 1hr
cm
rain 24hr
cm
rain mn
cm
humidity
%
barometer
mb
20260509111536 21 0.0 0.0 0.00 0.00 0.00 86 1009.8
20260509110042 21 0.0 0.0 0.00 0.00 0.00 86 1009.4
20260509104547 21 0.0 0.0 0.00 0.00 0.00 87 1009.4
20260509103035 21 0.0 0.0 0.00 0.00 0.00 87 1009.4
20260509101535 21 0.0 0.0 0.00 0.00 0.00 87 1009.4
20260509100037 21 0.0 0.0 0.00 0.00 0.00 87 1009.1
20260509094533 21 0.0 0.0 0.00 0.00 0.00 87 1009.0
20260509093032 21 0.0 0.0 0.00 0.00 0.00 87 1009.0
20260509091533 21 0.0 0.0 0.00 0.00 0.00 87 1009.0
20260509090035 21 0.0 0.0 0.00 0.00 0.00 87 1007.9
20260509084536 21 0.0 0.0 0.00 0.00 0.00 86 1007.3
20260509083029 21 0.0 0.0 0.00 0.00 0.00 86 1007.4
20260509081537 22 0.0 0.0 0.00 0.00 0.00 85 1008.4
20260509080022 22 0.0 0.0 0.00 0.00 0.00 85 1009.3
20260509074520 22 0.0 0.0 0.00 0.00 0.00 85 1010.0
20260509073016 22 0.0 0.0 0.00 0.00 0.00 85 1010.5
20260509071514 22 0.0 0.0 0.00 0.00 0.00 84 1011.0
20260509070014 22 0.0 0.0 0.00 0.00 0.00 84 1011.7
20260509064513 22 0.0 0.0 0.00 0.00 0.00 84 1011.4
20260509063012 22 0.0 0.0 0.00 0.00 0.00 83 1011.3
20260509061511 22 0.0 0.0 0.00 0.00 0.00 83 1011.2
20260509060011 22 0.0 0.0 0.00 0.00 0.00 82 1011.4
20260509054520 22 0.0 0.0 0.00 0.00 0.00 81 1012.0
20260509053013 22 0.0 0.0 0.00 0.00 0.00 81 1012.1
20260509051504 22 0.0 0.0 0.00 0.00 0.00 81 1012.5
20260509050101 22 0.0 0.0 0.00 0.00 0.00 80 1011.1
20260509044601 22 0.0 0.0 0.00 0.00 0.00 80 1011.1
20260509043102 22 0.0 0.0 0.00 0.00 0.00 80 1011.1
20260509041600 22 0.0 0.0 0.00 0.00 0.00 79 1010.8
20260509041501 22 0.0 0.0 0.00 0.00 0.00 79 1010.8
20260509040114 22 0.0 0.0 0.00 0.00 0.00 79 1010.7
20260509034630 22 0.0 0.0 0.00 0.00 0.00 79 1011.7
20260509033057 22 0.0 0.0 0.00 0.00 0.00 79 1011.2
20260509031557 22 0.0 0.0 0.00 0.00 0.00 78 1010.8
20260509030109 22 0.0 0.0 0.00 0.00 0.00 78 1010.3
20260509024556 23 0.0 0.0 0.00 0.00 0.00 77 1010.1
20260509023056 23 0.0 0.0 0.00 0.00 0.00 76 1009.7
20260509021559 23 0.0 0.0 0.00 0.00 0.00 76 1009.7
20260509020054 23 0.0 0.0 0.00 0.00 0.00 75 1009.3
20260509014627 23 0.0 0.0 0.00 0.00 0.00 75 1009.5
20260509013108 23 0.0 0.0 0.00 0.00 0.00 75 1009.7
20260509011603 23 0.0 0.0 0.00 0.00 0.00 74 1009.6
20260509010051 23 0.0 0.0 0.00 0.00 0.00 74 1009.1
20260509004551 24 0.0 0.0 0.00 0.00 0.00 73 1009.1
20260509003112 24 0.0 0.0 0.00 0.00 0.00 72 1008.9
20260509001552 25 0.0 0.0 0.00 0.00 0.00 70 1008.9
20260509000105 25 0.0 0.0 0.00 0.00 0.00 70 1009.2
20260508234548 25 0.0 0.0 0.00 0.00 0.00 68 1009.4
20260508233047 25 0.0 0.0 0.00 0.00 0.00 67 1009.4
20260508231549 26 0.0 0.0 0.00 0.00 0.00 66 1009.5
20260508230046 26 0.0 0.0 0.00 0.00 0.00 66 1009.4
20260508224545 26 0.0 0.0 0.00 0.00 0.00 65 1009.4
20260508223043 26 0.0 0.0 0.00 0.00 0.00 65 1009.5
20260508221543 26 0.0 0.0 0.00 0.00 0.00 64 1009.6
20260508220042 26 0.0 0.0 0.00 0.00 0.00 64 1009.5
20260508214540 26 0.0 0.0 0.00 0.00 0.00 62 1009.7
20260508213039 26 0.0 0.0 0.00 0.00 0.00 64 1009.8
20260508211543 25 0.0 0.0 0.00 0.00 0.00 64 1009.9
20260508210037 24 0.0 0.0 0.00 0.00 0.00 67 1010.0
20260508204535 23 0.0 0.0 0.00 0.00 0.00 68 1010.5
20260508203034 23 0.0 0.0 0.00 0.00 0.00 67 1011.4
20260508201531 23 0.0 0.0 0.00 0.00 0.00 66 1012.0
20260508200035 24 0.0 0.0 0.00 0.00 0.00 65 1011.8
20260508194530 25 0.0 0.0 0.00 0.00 0.00 65 1011.8
20260508193028 25 0.0 0.0 0.00 0.00 0.00 64 1011.9
20260508191526 25 0.0 0.0 0.00 0.00 0.00 63 1012.0
20260508190036 26 0.0 0.0 0.00 0.00 0.00 62 1012.0
20260508184525 26 0.0 0.0 0.00 0.00 0.00 61 1012.2
20260508183022 26 0.0 0.0 0.00 0.00 0.00 61 1012.3
20260508181524 26 0.0 0.0 0.00 0.00 0.00 62 1012.3
20260508180018 26 0.0 0.0 0.00 0.00 0.00 61 1012.8
20260508174530 26 0.0 0.0 0.00 0.00 0.00 60 1013.0
20260508173015 26 0.0 0.0 0.00 0.00 0.00 60 1013.0
20260508171512 26 0.0 0.0 0.00 0.00 0.00 60 1013.3
20260508170009 25 0.0 0.0 0.00 0.00 0.00 62 1013.5
20260508164504 23 0.0 0.0 0.00 0.00 0.00 63 1014.0
20260508163120 23 0.0 0.0 0.00 0.00 0.00 64 1014.2
20260508161558 23 0.0 0.0 0.00 0.00 0.00 64 1014.8
20260508160053 22 0.0 0.0 0.00 0.00 0.00 66 1014.8
20260508154552 21 0.0 0.0 0.00 0.00 0.00 68 1015.1
20260508153045 21 0.0 0.0 0.00 0.00 0.00 68 1015.7
20260508151545 20 0.0 0.0 0.00 0.00 0.00 68 1015.3
20260508150041 20 0.0 0.0 0.00 0.00 0.00 68 1015.4
20260508144541 20 0.0 0.0 0.00 0.00 0.00 69 1015.5
20260508143038 20 0.0 0.0 0.00 0.00 0.00 69 1015.6
20260508141536 20 0.0 0.0 0.00 0.00 0.00 68 1015.6
20260508140035 20 0.0 0.0 0.00 0.00 0.00 69 1015.8
20260508134537 19 0.0 0.0 0.00 0.00 0.00 75 1015.6
20260508133027 18 0.0 0.0 0.00 0.00 0.00 77 1015.6
20260508131525 17 0.0 0.0 0.00 0.00 0.00 78 1015.8
20260508130024 17 0.0 0.0 0.00 0.00 0.00 78 1015.9
20260508124524 17 0.0 0.0 0.00 0.00 0.00 78 1016.0
20260508123019 17 0.0 0.0 0.00 0.00 0.00 78 1016.1
20260508121517 17 0.0 0.0 0.00 0.00 0.00 78 1016.1
20260508120017 17 0.0 0.0 0.00 0.00 0.00 79 1016.0
20260508114515 17 0.0 0.0 0.00 0.00 0.00 79 1016.2
20260508113014 17 0.0 0.0 0.00 0.00 0.00 79 1016.1